Погода в Русановке

Украина / Сумская область     50°30′29″N   33°44′23″E
темп.,
°C
ветер,
м/с
пор.,
м/с
влажн.,
%
обл.,
%
осадки,
мм/ч
давл.,
гПа
погр.,
м
25 мая, ср
ср2500:00+10зсз337859 0.0 101447
03:00+8сз35875 0.0 101563
06:00+8сз34845 0.0 101682
09:00+15зсз35665 0.0 1016404
12:00+19сз564871 0.0 10172510
15:00+18сз465799 0.0 1017928
18:00+18ссз3664100 0.1 1017477
21:00+15юз2267100 0.1 101720
26 мая, чт
чт2600:00+11ююз35705 0.0 101764
03:00+10ю49737 0.0 1016137
06:00+13ююз51274100 0.0 1013318
09:00+14ю81666100 0.0 1011746
12:00+11юз91596100 7.3 1011793
15:00+16з8128281 8.5 10111252
18:00+18з611671 0.3 10111491
21:00+12зюз410895 0.4 1012205
27 мая, пт
пт2700:00+12зюз6148950 0.1 1011365
03:00+12з7158428 0.1 1011548
06:00+12з7158824 0.0 1011755
09:00+14зсз914640 0.0 10121353
12:00+17зсз9135440 0.0 10131939
15:00+16з6106947 0.1 10131050
18:00+18юз6106813 0.1 10111019
21:00+14ююз513835 0.1 1010301
28 мая, сб
сб2800:00+15ююз7177831 0.0 1008456
03:00+15зюз71483100 0.4 1007873
06:00+11з4993100 0.5 1009472
09:00+12зсз578690 0.6 1010708
12:00+15з686370 0.1 10111520
15:00+17з6851100 0.1 10111928
18:00+16зюз4661100 0.0 1011429
21:00+14зюз3367100 0.1 101357
29 мая, вс
вс2900:00+12ю4682100 0.3 1013154
03:00+10юз379020 0.3 1014166
06:00+9зюз359591 0.0 1015150
09:00+14зюз236751 0.0 1016614
12:00+17зюз345596 0.0 10161503
15:00+18зюз345090 0.0 10161761
18:00+18зюз245555 0.0 10161626
21:00+13ссз11685 0.0 101710